Flag for Philippines Weather past 2 weeks in Olongapo, Philippines

Now
88 °F

Scattered clouds.


Feels Like: 91 °F
Forecast: 73 / 92 °F
Wind: 16 mph from East

Location: Subic Bay Weather Station

Current Time: Mar 27, 2015 at 12:07:41 PM

Latest Report: Mar 27, 2015 at 11:00 AM


Visibility: N/A

Pressure: 30.01 "Hg

Humidity: 52%

Dew point: 68 °F

Location of OlongapoLocation

Historic Weather in Olongapo — Graph

°F

Olongapo temperature yesterday

Maximum temperature yesterday: 91 °F (at 4:00 PM)
Minimum temperature yesterday: 77 °F (at 11:00 PM)
Average temperature yesterday: 84 °F

Past Weeks' High & Low Weather Summary

 TemperatureHumidityPressure
High93 °F (Mar 15, 3:00 PM)83% (Mar 13, 5:00 AM)30.07 "Hg (Mar 13, 5:00 AM)
Low70 °F (Mar 18, 2:00 AM)30% (Mar 17, 2:00 PM)29.80 "Hg (Mar 17, 3:00 PM)
Average82 °F63%29.92 "Hg
* Reported Mar 12 11:00 AM — Mar 27 11:00 AM, Olongapo, Weather by CustomWeather, © 2015

Note: Actual official high and low records may vary slightly from our data, if they occured in-between our weather recording intervals... More about our weather records

Advertising

Olongapo weather history for previous 24 hours

 ConditionsComfort  
Time TempWeatherWind HumidityBarometerVisibility
11:00 AM
Fri, Mar 27
88 °FScattered clouds.16 mph52%30.01 "HgN/A
10:00 AM86 °FPartly sunny.18 mph62%30.01 "HgN/A
9:00 AM84 °FScattered clouds.18 mph58%30.01 "HgN/A
8:00 AM82 °FScattered clouds.16 mph70%30.01 "HgN/A
6:00 AM79 °FPartly sunny.9 mph70%30.01 "HgN/A
5:00 AM79 °FPassing clouds.12 mph70%29.98 "HgN/A
3:00 AM79 °FPassing clouds.7 mph65%29.98 "HgN/A
2:00 AM79 °FPassing clouds.7 mph65%29.98 "HgN/A
1:00 AM79 °FPassing clouds.12 mph65%30.01 "HgN/A
12:00 AM79 °FPassing clouds.10 mph61%30.04 "HgN/A
11:00 PM
Thu, Mar 26
77 °FPassing clouds.6 mph69%30.04 "HgN/A
9:00 PM81 °FPassing clouds.12 mph62%30.04 "HgN/A
8:00 PM82 °FPassing clouds.10 mph58%30.01 "HgN/A
7:00 PM82 °FPartly cloudy.8 mph58%29.98 "HgN/A
6:00 PM86 °FBroken clouds.12 mph52%29.98 "HgN/A
5:00 PM88 °FBroken clouds.14 mph49%29.95 "HgN/A
4:00 PM91 °FBroken clouds.16 mph41%29.95 "HgN/A
3:00 PM90 °FBroken clouds.14 mph46%29.95 "HgN/A
2:00 PM88 °FBroken clouds.10 mph49%29.98 "HgN/A
1:00 PM90 °FPartly sunny.16 mph46%30.01 "HgN/A
12:00 PM90 °FPartly sunny.16 mph46%30.01 "HgN/A
Weather by CustomWeather, © 2015

See weather overviewHow to use our weather pages